QPF
0.05 0.08 0.10 0.08 0.06 0.04 0.06 0.10 0.11 0.07 0.05 0.05 0.07 0.05 0.04 0.02 0.01 0.01 0.03 0.03 0.02 0.00 0.00 0.00 0.00 0.00 0.00 0.00 0.00 0.00 0.00 0.00 0.00 0.00 0.00 0.00 0.00 0.00 0.00 0.00 0.00 0.00 0.00 0.00
0.08 0.13 0.09 0.05 0.05 0.05 0.06 0.09 0.10 0.07 0.04 0.03 0.03 0.04 0.05 0.03 0.01 0.01 0.02 0.03 0.01 0.00 0.00 0.00 0.00 0.00 0.00 0.00 0.00 0.00 0.00 0.00 0.00 0.00 0.00 0.00 0.00 0.00 0.00 0.00 0.00 0.00 0.00 0.00
0.12 0.11 0.06 0.07 0.06 0.06 0.06 0.08 0.09 0.06 0.03 0.02 0.02 0.03 0.05 0.03 0.02 0.01 0.01 0.02 0.00 0.00 0.00 0.00 0.00 0.00 0.00 0.00 0.00 0.00 0.00 0.00 0.00 0.00 0.00 0.00 0.00 0.00 0.00 0.00 0.00 0.00 0.00 0.00
0.10 0.07 0.05 0.07 0.06 0.07 0.07 0.06 0.05 0.03 0.03 0.03 0.03 0.05 0.04 0.02 0.03 0.01 0.01 0.02 0.00 0.00 0.00 0.00 0.00 0.00 0.00 0.00 0.00 0.00 0.00 0.00 0.00 0.00 0.00 0.00 0.00 0.00 0.00 0.00 0.00 0.00 0.00 0.00
0.07 0.05 0.05 0.06 0.04 0.04 0.05 0.04 0.05 0.03 0.02 0.02 0.03 0.05 0.04 0.01 0.02 0.01 0.00 0.01 0.01 0.00 0.00 0.00 0.00 0.00 0.00 0.00 0.00 0.00 0.00 0.00 0.00 0.00 0.00 0.00 0.00 0.00 0.00 0.00 0.00 0.00 0.00 0.00
0.03 0.03 0.05 0.04 0.02 0.02 0.02 0.03 0.04 0.03 0.03 0.03 0.02 0.03 0.04 0.02 0.01 0.00 0.00 0.00 0.00 0.00 0.00 0.00 0.00 0.00 0.00 0.00 0.00 0.00 0.00 0.00 0.00 0.00 0.00 0.00 0.00 0.00 0.00 0.00 0.00 0.00 0.00 0.00
0.03 0.03 0.02 0.02 0.02 0.02 0.02 0.05 0.08 0.08 0.06 0.04 0.01 0.01 0.02 0.01 0.00 0.00 0.00 0.00 0.00 0.00 0.00 0.00 0.00 0.00 0.00 0.00 0.00 0.00 0.00 0.00 0.00 0.00 0.00 0.00 0.00 0.00 0.00 0.00 0.00 0.00 0.00 0.00
0.04 0.04 0.02 0.01 0.02 0.02 0.02 0.04 0.07 0.08 0.06 0.02 0.00 0.01 0.01 0.00 0.00 0.00 0.00 0.00 0.00 0.00 0.00 0.00 0.00 0.00 0.00 0.00 0.00 0.00 0.00 0.00 0.00 0.00 0.00 0.00 0.00 0.00 0.00 0.00 0.00 0.00 0.00 0.00
0.03 0.03 0.01 0.01 0.01 0.01 0.02 0.02 0.02 0.03 0.03 0.03 0.01 0.01 0.01 0.00 0.00 0.00 0.00 0.00 0.00 0.00 0.00 0.00 0.00 0.00 0.00 0.00 0.00 0.00 0.00 0.00 0.00 0.00 0.00 0.00 0.00 0.00 0.00 0.00 0.00 0.00 0.00 0.00
0.02 0.03 0.02 0.01 0.01 0.01 0.01 0.01 0.01 0.01 0.04 0.05 0.03 0.01 0.00 0.00 0.00 0.00 0.00 0.00 0.00 0.01 0.00 0.00 0.00 0.00 0.00 0.00 0.00 0.00 0.00 0.00 0.00 0.00 0.00 0.00 0.00 0.00 0.00 0.00 0.00 0.00 0.00 0.00
0.02 0.04 0.03 0.02 0.01 0.01 0.01 0.01 0.01 0.01 0.01 0.03 0.04 0.02 0.00 0.00 0.00 0.00 0.00 0.00 0.00 0.01 0.00 0.00 0.00 0.00 0.00 0.00 0.00 0.00 0.00 0.00 0.00 0.00 0.00 0.00 0.00 0.00 0.00 0.00 0.00 0.00 0.00 0.00
0.01 0.03 0.03 0.01 0.00 0.00 0.00 0.01 0.01 0.01 0.01 0.01 0.02 0.03 0.00 0.00 0.00 0.00 0.00 0.00 0.00 0.00 0.00 0.00 0.00 0.00 0.00 0.00 0.00 0.00 0.00 0.00 0.00 0.00 0.00 0.00 0.00 0.00 0.00 0.00 0.00 0.00 0.00 0.00
0.00 0.01 0.03 0.03 0.02 0.00 0.00 0.00 0.00 0.00 0.01 0.01 0.02 0.02 0.00 0.00 0.00 0.00 0.00 0.00 0.00 0.00 0.00 0.00 0.00 0.00 0.00 0.00 0.00 0.00 0.00 0.00 0.00 0.00 0.00 0.00 0.00 0.00 0.00 0.00 0.00 0.00 0.00 0.00
0.00 0.01 0.03 0.04 0.02 0.00 0.00 0.00 0.00 0.00 0.01 0.01 0.02 0.02 0.01 0.00 0.00 0.00 0.00 0.00 0.00 0.00 0.00 0.00 0.00 0.00 0.00 0.00 0.00 0.00 0.00 0.00 0.00 0.00 0.00 0.00 0.00 0.00 0.00 0.00 0.00 0.00 0.00 0.00
0.00 0.00 0.01 0.01 0.00 0.00 0.00 0.00 0.00 0.00 0.00 0.00 0.01 0.01 0.00 0.00 0.00 0.00 0.00 0.00 0.00 0.00 0.00 0.00 0.00 0.00 0.00 0.00 0.00 0.00 0.00 0.00 0.00 0.00 0.00 0.00 0.00 0.00 0.00 0.00 0.00 0.00 0.00 0.00
0.00 0.00 0.01 0.01 0.00 0.00 0.00 0.00 0.00 0.00 0.00 0.00 0.00 0.00 0.00 0.00 0.00 0.00 0.00 0.00 0.00 0.00 0.00 0.00 0.00 0.00 0.00 0.00 0.00 0.00 0.00 0.00 0.00 0.00 0.00 0.00 0.00 0.00 0.00 0.00 0.00 0.00 0.00 0.00
0.00 0.01 0.02 0.01 0.00 0.00 0.00 0.00 0.00 0.00 0.00 0.00 0.00 0.00 0.00 0.00 0.00 0.00 0.00 0.00 0.00 0.00 0.00 0.00 0.00 0.00 0.00 0.00 0.00 0.00 0.00 0.00 0.00 0.00 0.00 0.00 0.00 0.00 0.00 0.00 0.00 0.00 0.00 0.00
0.00 0.00 0.00 0.00 0.00 0.01 0.00 0.00 0.00 0.00 0.00 0.00 0.00 0.00 0.00 0.00 0.00 0.00 0.00 0.00 0.00 0.00 0.00 0.00 0.00 0.00 0.00 0.00 0.00 0.00 0.00 0.00 0.00 0.00 0.00 0.00 0.00 0.00 0.00 0.00 0.00 0.00 0.00 0.00
0.00 0.01 0.00 0.00 0.00 0.00 0.00 0.00 0.00 0.00 0.00 0.00 0.00 0.00 0.00 0.00 0.00 0.00 0.00 0.00 0.00 0.00 0.00 0.00 0.00 0.00 0.00 0.00 0.00 0.00 0.00 0.00 0.00 0.00 0.00 0.00 0.00 0.00 0.00 0.00 0.00 0.00 0.00 0.00
0.00 0.00 0.00 0.00 0.00 0.00 0.00 0.00 0.00 0.00 0.00 0.00 0.00 0.00 0.00 0.00 0.00 0.00 0.00 0.00 0.00 0.00 0.00 0.00 0.00 0.00 0.00 0.00 0.00 0.00 0.00 0.00 0.00 0.00 0.00 0.00 0.00 0.00 0.00 0.00 0.00 0.00 0.00 0.00
0.00 0.00 0.00 0.00 0.00 0.00 0.00 0.00 0.00 0.00 0.00 0.00 0.00 0.00 0.00 0.00 0.00 0.00 0.00 0.00 0.00 0.00 0.00 0.00 0.00 0.00 0.00 0.00 0.00 0.00 0.00 0.00 0.00 0.00 0.00 0.00 0.00 0.00 0.00 0.00 0.00 0.00 0.00 0.00
0.00 0.00 0.00 0.00 0.00 0.00 0.00 0.00 0.00 0.00 0.00 0.00 0.00 0.00 0.00 0.00 0.00 0.00 0.00 0.00 0.00 0.00 0.00 0.00 0.00 0.00 0.00 0.00 0.00 0.00 0.00 0.00 0.00 0.00 0.00 0.00 0.00 0.00 0.00 0.00 0.00 0.00 0.00 0.00
0.00 0.00 0.00 0.00 0.00 0.00 0.00 0.00 0.00 0.00 0.00 0.00 0.00 0.00 0.00 0.00 0.00 0.00 0.00 0.00 0.00 0.00 0.00 0.00 0.00 0.00 0.00 0.00 0.00 0.00 0.00 0.00 0.00 0.00 0.00 0.00 0.00 0.00 0.00 0.00 0.00 0.00 0.00 0.00
0.00 0.00 0.00 0.00 0.00 0.00 0.00 0.00 0.00 0.00 0.00 0.00 0.00 0.00 0.00 0.00 0.00 0.00 0.00 0.00 0.00 0.00 0.00 0.00 0.00 0.00 0.00 0.00 0.00 0.00 0.00 0.00 0.00 0.00 0.00 0.00 0.00 0.00 0.00 0.00 0.00 0.00 0.00 0.00
0.00 0.00 0.00 0.00 0.00 0.00 0.00 0.00 0.00 0.00 0.00 0.00 0.00 0.00 0.00 0.00 0.00 0.00 0.00 0.00 0.00 0.00 0.00 0.00 0.00 0.00 0.00 0.00 0.00 0.00 0.00 0.00 0.00 0.00 0.00 0.00 0.00 0.00 0.00 0.00 0.00 0.00 0.00 0.00
0.00 0.00 0.00 0.00 0.00 0.00 0.00 0.00 0.00 0.00 0.00 0.00 0.00 0.00 0.00 0.00 0.00 0.00 0.00 0.00 0.00 0.00 0.00 0.00 0.00 0.00 0.00 0.00 0.00 0.00 0.00 0.00 0.00 0.00 0.00 0.00 0.00 0.00 0.00 0.00 0.00 0.00 0.00 0.00
MSLP
1013.85 1014.82 1015.69 1016.44 1017.02 1017.45 1017.72 1017.87 1017.93 1017.90 1017.81 1017.65 1017.44 1017.18 1016.87 1016.53 1016.19 1015.87 1015.59 1015.36 1015.20 1015.10 1015.05 1015.03 1015.03 1015.05 1015.09 1015.14 1015.24 1015.38 1015.59 1015.85 1016.16 1016.50 1016.83 1017.12 1017.35 1017.51 1017.58 1017.58 1017.53 1017.46 1017.37 1017.30
1015.19 1016.15 1016.96 1017.59 1018.02 1018.27 1018.39 1018.39 1018.32 1018.19 1018.02 1017.79 1017.52 1017.19 1016.82 1016.43 1016.05 1015.71 1015.43 1015.24 1015.13 1015.09 1015.10 1015.13 1015.16 1015.18 1015.18 1015.19 1015.22 1015.32 1015.50 1015.77 1016.11 1016.51 1016.93 1017.32 1017.64 1017.87 1018.00 1018.04 1018.00 1017.92 1017.82 1017.73
1016.43 1017.35 1018.06 1018.55 1018.81 1018.90 1018.84 1018.70 1018.51 1018.28 1018.03 1017.73 1017.39 1016.99 1016.56 1016.11 1015.69 1015.33 1015.07 1014.92 1014.88 1014.93 1015.03 1015.14 1015.22 1015.26 1015.26 1015.24 1015.23 1015.28 1015.43 1015.69 1016.06 1016.52 1017.01 1017.48 1017.90 1018.21 1018.41 1018.49 1018.48 1018.41 1018.32 1018.23
1017.39 1018.23 1018.82 1019.16 1019.27 1019.21 1019.03 1018.78 1018.51 1018.21 1017.89 1017.54 1017.12 1016.65 1016.14 1015.62 1015.14 1014.76 1014.50 1014.40 1014.44 1014.59 1014.81 1015.03 1015.20 1015.31 1015.33 1015.31 1015.29 1015.31 1015.43 1015.67 1016.05 1016.53 1017.08 1017.62 1018.12 1018.51 1018.77 1018.91 1018.95 1018.91 1018.84 1018.76
1017.92 1018.65 1019.11 1019.32 1019.32 1019.16 1018.92 1018.64 1018.34 1018.03 1017.69 1017.29 1016.83 1016.28 1015.68 1015.07 1014.52 1014.08 1013.82 1013.74 1013.86 1014.12 1014.46 1014.82 1015.12 1015.32 1015.42 1015.43 1015.41 1015.41 1015.51 1015.73 1016.09 1016.58 1017.16 1017.75 1018.30 1018.76 1019.09 1019.29 1019.37 1019.38 1019.33 1019.28
1017.96 1018.54 1018.88 1018.99 1018.93 1018.75 1018.52 1018.28 1018.04 1017.78 1017.47 1017.08 1016.57 1015.96 1015.26 1014.55 1013.90 1013.39 1013.09 1013.03 1013.20 1013.57 1014.05 1014.55 1015.00 1015.33 1015.53 1015.61 1015.61 1015.61 1015.68 1015.87 1016.21 1016.68 1017.25 1017.86 1018.45 1018.95 1019.34 1019.59 1019.73 1019.77 1019.77 1019.75
1017.50 1017.93 1018.16 1018.22 1018.15 1018.02 1017.89 1017.76 1017.64 1017.50 1017.27 1016.91 1016.40 1015.73 1014.95 1014.12 1013.36 1012.77 1012.41 1012.34 1012.56 1013.01 1013.62 1014.28 1014.88 1015.35 1015.67 1015.83 1015.88 1015.89 1015.94 1016.09 1016.38 1016.81 1017.35 1017.96 1018.55 1019.08 1019.51 1019.80 1019.98 1020.07 1020.10 1020.12
1016.63 1016.93 1017.08 1017.12 1017.10 1017.08 1017.09 1017.14 1017.19 1017.20 1017.09 1016.80 1016.31 1015.60 1014.74 1013.82 1012.96 1012.27 1011.85 1011.76 1012.00 1012.52 1013.23 1014.02 1014.77 1015.38 1015.81 1016.06 1016.17 1016.20 1016.23 1016.34 1016.58 1016.96 1017.46 1018.03 1018.62 1019.15 1019.60 1019.92 1020.13 1020.25 1020.31 1020.36
1015.51 1015.71 1015.81 1015.86 1015.93 1016.04 1016.22 1016.46 1016.71 1016.88 1016.90 1016.70 1016.24 1015.52 1014.61 1013.61 1012.66 1011.89 1011.41 1011.29 1011.54 1012.10 1012.90 1013.79 1014.65 1015.39 1015.93 1016.27 1016.42 1016.48 1016.50 1016.58 1016.77 1017.10 1017.55 1018.08 1018.64 1019.17 1019.62 1019.96 1020.19 1020.32 1020.41 1020.47
1014.34 1014.46 1014.55 1014.65 1014.80 1015.05 1015.39 1015.79 1016.20 1016.51 1016.65 1016.52 1016.10 1015.39 1014.47 1013.43 1012.43 1011.61 1011.09 1010.94 1011.18 1011.77 1012.61 1013.57 1014.51 1015.33 1015.96 1016.37 1016.58 1016.66 1016.69 1016.76 1016.92 1017.20 1017.61 1018.10 1018.64 1019.15 1019.59 1019.93 1020.17 1020.32 1020.41 1020.48
1013.30 1013.40 1013.50 1013.65 1013.88 1014.22 1014.66 1015.17 1015.68 1016.07 1016.27 1016.20 1015.81 1015.12 1014.20 1013.17 1012.16 1011.33 1010.80 1010.64 1010.88 1011.46 1012.32 1013.30 1014.29 1015.16 1015.84 1016.31 1016.57 1016.69 1016.75 1016.82 1016.97 1017.24 1017.62 1018.10 1018.61 1019.11 1019.54 1019.89 1020.12 1020.27 1020.36 1020.43
1012.53 1012.65 1012.79 1012.97 1013.25 1013.63 1014.10 1014.62 1015.13 1015.53 1015.73 1015.66 1015.29 1014.63 1013.74 1012.75 1011.78 1010.99 1010.48 1010.33 1010.56 1011.14 1011.97 1012.95 1013.93 1014.82 1015.53 1016.04 1016.36 1016.53 1016.63 1016.74 1016.92 1017.20 1017.59 1018.06 1018.57 1019.06 1019.49 1019.83 1020.07 1020.22 1020.31 1020.37
1012.10 1012.27 1012.44 1012.65 1012.93 1013.28 1013.69 1014.14 1014.56 1014.88 1015.01 1014.90 1014.51 1013.88 1013.06 1012.13 1011.25 1010.53 1010.07 1009.95 1010.18 1010.74 1011.53 1012.47 1013.42 1014.29 1015.01 1015.56 1015.93 1016.17 1016.34 1016.52 1016.76 1017.08 1017.50 1017.98 1018.50 1018.99 1019.42 1019.77 1020.01 1020.16 1020.26 1020.32
1011.98 1012.21 1012.43 1012.64 1012.87 1013.13 1013.42 1013.71 1013.97 1014.13 1014.13 1013.94 1013.53 1012.92 1012.16 1011.34 1010.57 1009.95 1009.57 1009.50 1009.73 1010.25 1010.99 1011.86 1012.76 1013.60 1014.31 1014.88 1015.31 1015.63 1015.89 1016.16 1016.48 1016.87 1017.34 1017.85 1018.39 1018.89 1019.33 1019.68 1019.94 1020.10 1020.21 1020.29
1012.09 1012.39 1012.63 1012.82 1012.98 1013.11 1013.22 1013.31 1013.35 1013.31 1013.16 1012.86 1012.41 1011.82 1011.14 1010.44 1009.80 1009.30 1009.01 1008.98 1009.22 1009.71 1010.38 1011.17 1011.99 1012.77 1013.47 1014.06 1014.54 1014.95 1015.31 1015.69 1016.10 1016.57 1017.09 1017.65 1018.21 1018.73 1019.18 1019.54 1019.81 1019.99 1020.12 1020.23
1012.31 1012.66 1012.91 1013.06 1013.12 1013.11 1013.03 1012.91 1012.73 1012.48 1012.17 1011.76 1011.28 1010.72 1010.12 1009.54 1009.03 1008.66 1008.46 1008.48 1008.71 1009.15 1009.74 1010.43 1011.17 1011.89 1012.56 1013.15 1013.69 1014.17 1014.64 1015.12 1015.62 1016.17 1016.75 1017.35 1017.93 1018.46 1018.92 1019.29 1019.58 1019.79 1019.96 1020.10
1012.50 1012.88 1013.12 1013.23 1013.19 1013.05 1012.80 1012.48 1012.11 1011.70 1011.25 1010.77 1010.26 1009.74 1009.23 1008.77 1008.39 1008.12 1008.00 1008.05 1008.26 1008.64 1009.14 1009.73 1010.36 1011.01 1011.63 1012.23 1012.80 1013.35 1013.90 1014.47 1015.06 1015.67 1016.30 1016.92 1017.51 1018.04 1018.51 1018.89 1019.21 1019.46 1019.66 1019.85
1012.59 1012.95 1013.16 1013.22 1013.11 1012.86 1012.49 1012.04 1011.54 1011.01 1010.48 1009.96 1009.47 1009.00 1008.58 1008.22 1007.95 1007.76 1007.70 1007.75 1007.93 1008.23 1008.63 1009.10 1009.63 1010.18 1010.76 1011.34 1011.92 1012.52 1013.12 1013.75 1014.40 1015.05 1015.70 1016.33 1016.92 1017.46 1017.92 1018.32 1018.66 1018.95 1019.21 1019.45
1012.50 1012.82 1012.99 1013.00 1012.84 1012.53 1012.11 1011.60 1011.04 1010.47 1009.93 1009.42 1008.96 1008.56 1008.22 1007.95 1007.76 1007.63 1007.58 1007.62 1007.74 1007.95 1008.23 1008.58 1008.99 1009.45 1009.96 1010.50 1011.07 1011.68 1012.31 1012.97 1013.64 1014.31 1014.97 1015.59 1016.18 1016.70 1017.17 1017.59 1017.95 1018.28 1018.59 1018.89
1012.28 1012.52 1012.64 1012.61 1012.44 1012.12 1011.69 1011.18 1010.64 1010.10 1009.59 1009.14 1008.74 1008.42 1008.15 1007.95 1007.80 1007.70 1007.64 1007.64 1007.68 1007.78 1007.94 1008.17 1008.46 1008.82 1009.24 1009.72 1010.26 1010.85 1011.48 1012.13 1012.80 1013.46 1014.11 1014.72 1015.29 1015.81 1016.28 1016.71 1017.11 1017.48 1017.84 1018.19
1011.98 1012.14 1012.20 1012.15 1011.98 1011.69 1011.31 1010.86 1010.39 1009.92 1009.49 1009.11 1008.79 1008.52 1008.31 1008.15 1008.02 1007.91 1007.82 1007.75 1007.70 1007.70 1007.74 1007.84 1008.01 1008.26 1008.59 1009.00 1009.48 1010.02 1010.61 1011.24 1011.88 1012.52 1013.14 1013.74 1014.29 1014.82 1015.30 1015.75 1016.18 1016.59 1016.99 1017.38
1011.70 1011.78 1011.81 1011.75 1011.59 1011.35 1011.04 1010.69 1010.31 1009.93 1009.59 1009.29 1009.03 1008.81 1008.63 1008.48 1008.33 1008.18 1008.04 1007.89 1007.76 1007.65 1007.57 1007.56 1007.62 1007.77 1008.00 1008.32 1008.73 1009.20 1009.74 1010.32 1010.92 1011.52 1012.11 1012.69 1013.24 1013.77 1014.27 1014.74 1015.21 1015.65 1016.09 1016.51
1011.55 1011.58 1011.58 1011.52 1011.40 1011.21 1010.98 1010.71 1010.43 1010.14 1009.87 1009.63 1009.41 1009.22 1009.03 1008.85 1008.67 1008.46 1008.25 1008.02 1007.80 1007.60 1007.43 1007.32 1007.28 1007.33 1007.47 1007.70 1008.02 1008.42 1008.88 1009.39 1009.94 1010.50 1011.06 1011.62 1012.17 1012.70 1013.22 1013.72 1014.22 1014.69 1015.15 1015.58
1011.62 1011.62 1011.61 1011.56 1011.47 1011.35 1011.18 1010.98 1010.77 1010.54 1010.32 1010.10 1009.89 1009.67 1009.46 1009.23 1008.98 1008.71 1008.42 1008.12 1007.82 1007.54 1007.30 1007.11 1006.99 1006.95 1007.00 1007.15 1007.38 1007.69 1008.07 1008.50 1008.98 1009.49 1010.02 1010.55 1011.09 1011.63 1012.17 1012.69 1013.21 1013.70 1014.17 1014.60
1011.95 1011.96 1011.96 1011.93 1011.87 1011.78 1011.66 1011.50 1011.32 1011.12 1010.90 1010.67 1010.42 1010.16 1009.88 1009.58 1009.26 1008.91 1008.56 1008.19 1007.84 1007.50 1007.19 1006.95 1006.76 1006.65 1006.62 1006.68 1006.82 1007.04 1007.32 1007.67 1008.08 1008.52 1009.00 1009.51 1010.03 1010.57 1011.11 1011.64 1012.16 1012.65 1013.12 1013.54
1012.54 1012.59 1012.61 1012.61 1012.58 1012.51 1012.40 1012.25 1012.06 1011.84 1011.59 1011.31 1011.00 1010.67 1010.31 1009.93 1009.53 1009.11 1008.70 1008.28 1007.88 1007.50 1007.16 1006.87 1006.63 1006.46 1006.36 1006.33 1006.37 1006.49 1006.68 1006.93 1007.24 1007.61 1008.03 1008.49 1008.98 1009.49 1010.01 1010.53 1011.03 1011.51 1011.96 1012.36
Thickness
5724 5716 5708 5716 5723 5723 5718 5712 5710 5718 5731 5729 5723 5723 5730 5738 5740 5741 5744 5746 5748 5750 5754 5755 5755 5756 5756 5756 5754 5752 5750 5749 5747 5745 5743 5740 5739 5740 5739 5737 5735 5734 5732 5731
5711 5704 5719 5727 5727 5724 5719 5709 5710 5719 5732 5729 5723 5725 5734 5739 5741 5745 5746 5747 5749 5750 5751 5751 5752 5753 5754 5752 5752 5750 5749 5747 5745 5744 5743 5742 5740 5739 5737 5735 5734 5732 5730 5729
5702 5710 5725 5724 5720 5719 5718 5714 5713 5716 5725 5731 5725 5720 5730 5740 5746 5749 5751 5752 5752 5752 5750 5749 5750 5751 5750 5750 5750 5749 5747 5746 5745 5744 5743 5741 5739 5736 5734 5732 5731 5730 5729 5727
5707 5719 5722 5718 5716 5719 5710 5724 5724 5722 5718 5716 5724 5705 5726 5737 5739 5743 5747 5750 5752 5754 5754 5751 5750 5749 5749 5749 5750 5749 5747 5745 5744 5743 5740 5737 5732 5729 5730 5730 5729 5729 5727 5725
5708 5720 5718 5714 5720 5724 5720 5731 5727 5725 5721 5718 5725 5714 5725 5740 5734 5740 5747 5751 5754 5755 5755 5752 5751 5750 5750 5749 5748 5747 5745 5743 5742 5740 5738 5735 5732 5730 5730 5729 5728 5726 5725 5723
5718 5728 5725 5724 5731 5733 5732 5729 5726 5725 5721 5707 5725 5721 5722 5738 5744 5749 5753 5755 5757 5757 5756 5754 5753 5750 5748 5747 5745 5744 5741 5739 5739 5738 5736 5733 5730 5729 5727 5725 5724 5723 5722 5720
5712 5721 5731 5735 5724 5728 5727 5713 5700 5698 5699 5710 5739 5732 5734 5756 5764 5763 5760 5760 5761 5759 5756 5753 5749 5746 5744 5743 5742 5741 5738 5736 5736 5735 5735 5733 5730 5728 5725 5723 5721 5720 5718 5716
5706 5707 5727 5735 5730 5725 5726 5719 5698 5689 5698 5715 5738 5733 5748 5768 5772 5772 5770 5766 5764 5760 5757 5753 5750 5746 5743 5741 5740 5738 5736 5734 5734 5734 5733 5732 5730 5727 5725 5723 5721 5719 5716 5715
5713 5715 5738 5742 5745 5738 5727 5724 5730 5717 5716 5711 5728 5744 5753 5767 5765 5766 5766 5765 5762 5760 5757 5754 5751 5747 5744 5741 5739 5738 5735 5733 5732 5732 5731 5730 5728 5725 5723 5721 5720 5717 5715 5713
5728 5716 5730 5740 5743 5742 5739 5737 5728 5718 5704 5702 5721 5734 5738 5747 5754 5759 5760 5760 5760 5760 5757 5754 5751 5747 5744 5742 5739 5738 5735 5733 5732 5731 5729 5727 5725 5723 5721 5718 5716 5714 5712 5710
5735 5719 5722 5730 5727 5728 5734 5733 5733 5729 5728 5709 5700 5720 5761 5759 5762 5760 5761 5763 5761 5759 5756 5753 5750 5747 5744 5741 5738 5735 5734 5732 5730 5728 5727 5724 5721 5720 5718 5715 5713 5711 5709 5707
5738 5725 5715 5727 5746 5751 5744 5739 5734 5718 5721 5729 5717 5723 5770 5770 5770 5768 5765 5765 5764 5761 5758 5753 5749 5745 5742 5739 5736 5734 5732 5730 5727 5726 5723 5720 5718 5716 5714 5711 5710 5708 5706 5704
5738 5724 5709 5712 5726 5740 5738 5742 5743 5739 5732 5726 5717 5727 5769 5771 5770 5769 5767 5765 5763 5760 5756 5752 5747 5743 5740 5737 5735 5733 5731 5728 5725 5722 5719 5717 5715 5712 5710 5708 5706 5703 5701 5699
5741 5727 5715 5703 5716 5734 5734 5739 5744 5737 5723 5722 5727 5734 5752 5762 5763 5765 5764 5764 5761 5758 5754 5749 5744 5741 5739 5736 5734 5731 5729 5726 5723 5719 5716 5713 5711 5709 5706 5704 5701 5698 5696 5693
5741 5727 5731 5735 5742 5744 5742 5742 5743 5739 5738 5730 5735 5740 5752 5762 5763 5765 5764 5762 5758 5755 5751 5748 5743 5740 5737 5735 5732 5730 5727 5724 5721 5716 5712 5709 5708 5705 5702 5699 5696 5693 5690 5688
5740 5731 5734 5733 5742 5744 5741 5745 5745 5744 5745 5743 5742 5745 5763 5767 5767 5763 5761 5758 5754 5752 5751 5748 5744 5740 5737 5734 5731 5729 5725 5722 5718 5713 5709 5706 5704 5700 5697 5693 5691 5687 5684 5682
5739 5732 5724 5722 5739 5738 5729 5746 5748 5748 5751 5748 5739 5747 5760 5759 5759 5759 5758 5756 5753 5751 5750 5747 5745 5741 5738 5736 5733 5728 5724 5721 5716 5710 5706 5702 5699 5694 5691 5689 5685 5681 5678 5675
5738 5732 5727 5723 5724 5707 5738 5764 5760 5750 5751 5756 5755 5757 5758 5758 5761 5763 5762 5756 5752 5751 5748 5747 5745 5742 5740 5738 5733 5728 5723 5718 5713 5708 5703 5699 5694 5690 5686 5682 5678 5675 5672 5669
5745 5730 5719 5715 5710 5719 5741 5753 5755 5745 5740 5755 5753 5755 5756 5759 5756 5753 5759 5758 5754 5752 5750 5748 5747 5744 5740 5736 5732 5726 5720 5715 5709 5704 5700 5696 5691 5685 5681 5676 5673 5670 5667 5663
5738 5732 5717 5711 5702 5702 5725 5749 5759 5747 5728 5751 5753 5749 5749 5748 5732 5735 5751 5752 5751 5750 5748 5746 5744 5742 5737 5734 5730 5722 5716 5711 5706 5702 5697 5693 5688 5682 5677 5673 5669 5665 5661 5658
5717 5715 5708 5704 5702 5713 5735 5748 5749 5719 5720 5745 5748 5746 5743 5737 5735 5741 5747 5746 5745 5744 5743 5741 5738 5734 5732 5730 5725 5717 5712 5708 5705 5700 5694 5689 5684 5679 5674 5669 5664 5660 5656 5652
5718 5711 5709 5708 5699 5703 5734 5737 5729 5726 5740 5742 5741 5741 5738 5736 5738 5739 5739 5738 5737 5735 5734 5733 5729 5725 5725 5723 5717 5711 5707 5705 5701 5695 5689 5684 5679 5675 5670 5664 5659 5655 5650 5645
5724 5723 5718 5715 5711 5724 5732 5731 5734 5737 5734 5734 5733 5733 5732 5729 5728 5729 5729 5729 5729 5728 5726 5724 5721 5717 5716 5714 5711 5705 5702 5699 5694 5688 5682 5678 5674 5669 5665 5659 5653 5648 5644 5639
5726 5733 5723 5717 5720 5724 5726 5728 5729 5730 5727 5728 5728 5727 5725 5721 5721 5720 5720 5719 5719 5719 5717 5716 5712 5708 5706 5706 5703 5700 5697 5693 5688 5681 5676 5672 5667 5663 5658 5653 5649 5643 5638 5634
5714 5718 5713 5708 5712 5714 5715 5719 5720 5721 5721 5721 5720 5720 5717 5714 5712 5711 5710 5710 5709 5709 5708 5707 5703 5700 5698 5697 5695 5693 5690 5686 5680 5675 5670 5666 5661 5657 5652 5647 5642 5638 5634 5629
5710 5706 5701 5697 5706 5705 5705 5711 5713 5710 5709 5710 5709 5708 5709 5707 5704 5703 5701 5700 5700 5699 5698 5696 5693 5691 5690 5688 5686 5684 5681 5677 5672 5667 5663 5658 5654 5649 5644 5639 5635 5632 5628 5624